Back to catalog

THOR ABLESTAR DEB *

AliveUNKNOWN
NORAD 18651·DEBRIS·🇺🇸 United States

Launched Jun 29, 1961 from Cape Canaveral Space Force Station

Loading…

Next Passes (next 24 hours)

TLE

FreshSource: Space-Track

Epoch: Sep 9, 2026, 18:18 UTC

1 18651U 61015LW  26252.76303622 -.00000026  00000-0  89110-4 0  9992
2 18651  65.6980  69.3743 0752457 248.8727 117.1809 12.40437459614790

Track THOR ABLESTAR DEB * in real time with AllMySat

Download on the App Store